Flag for Canada Weather past 2 weeks in Newmarket, Ontario, Canada

Now
21 °F

Overcast.


Feels Like: 8 °F
Forecast: 11 / 28 °F
Wind: 14 mph from Southeast

Location: Borden

Current Time: Jan 29, 2015 at 5:29:26 AM

Latest Report: Jan 29, 2015 at 5:00 AM


Visibility: 9 mi

Pressure: 30.10 "Hg

Humidity: 68%

Dew point: 12 °F

Location of NewmarketLocation

Historic Weather in Newmarket — Graph

°F

Newmarket temperature yesterday

Maximum temperature yesterday: 27 °F (at 3:00 PM)
Minimum temperature yesterday: -11 °F (at 5:00 AM)
Average temperature yesterday: 7 °F

Past Weeks' High & Low Weather Summary

 TemperatureHumidityPressure
High43 °F (Jan 18, 1:00 AM)100% (Jan 14, 7:00 PM)30.47 "Hg (Jan 14, 7:00 PM)
Low-17 °F (Jan 21, 4:00 AM)41% (Jan 26, 5:00 PM)29.42 "Hg (Jan 24, 3:01 PM)
Average14 °F77%30.03 "Hg
* Reported Jan 14 4:00 AM — Jan 29 4:00 AM, Newmarket, Weather by CustomWeather, © 2014

Note: Actual official high and low records may vary slightly from our data, if they occured in-between our weather recording intervals... More about our weather records

Advertising

Newmarket weather history for previous 24 hours

 ConditionsComfort  
Time TempWeatherWind HumidityBarometerVisibility
4:00 AM
Jan 29
21 °FOvercast.12 mph63%30.14 "Hg9 mi
3:00 AM19 °FPassing clouds.9 mph63%30.19 "Hg9 mi
2:00 AM19 °FClear.9 mph58%30.21 "Hg9 mi
1:00 AM18 °FClear.7 mph58%30.22 "Hg9 mi
12:00 AM10 °FClear.3 mph72%30.25 "Hg9 mi
11:00 PM
Jan 28
12 °FClear.6 mph67%30.26 "Hg9 mi
10:00 PM3 °FClear.No wind100%30.28 "Hg9 mi
9:00 PM3 °FClear.2 mph100%30.29 "Hg9 mi
8:00 PM7 °FClear.2 mph92%30.32 "Hg9 mi
7:00 PM9 °FClear.No wind92%30.32 "Hg9 mi
6:00 PM16 °FClear.No wind73%30.32 "Hg9 mi
5:00 PM23 °FSunny.3 mph58%30.33 "Hg9 mi
4:00 PM25 °FSunny.7 mph54%30.32 "Hg9 mi
3:00 PM27 °FSunny.3 mph50%30.31 "Hg9 mi
2:00 PM25 °FSunny.6 mph54%30.30 "Hg9 mi
1:00 PM23 °FSunny.3 mph63%30.32 "Hg9 mi
12:00 PM23 °FSunny.3 mph63%30.34 "Hg9 mi
11:00 AM19 °FSunny.8 mph53%30.36 "Hg9 mi
10:00 AM9 °FSunny.No wind72%30.36 "Hg9 mi
9:00 AM-4 °FSunny.2 mph77%30.36 "Hg9 mi
8:00 AM-11 °FSunny.No wind70%30.34 "Hg9 mi
7:00 AM-11 °FClear.No wind70%30.31 "Hg9 mi
6:00 AM-9 °FClear.No wind77%30.28 "Hg9 mi
5:00 AM-11 °FClear.No wind70%30.27 "Hg9 mi
Weather by CustomWeather, © 2014

See weather overviewHow to use our weather pages